Preview of NWS' New Version of Forecast
This preview is not operational and should not be used for support decisions.

Regional Weather Roundup (RWR)

Issued by National Weather Service (NWS)

                            
000
ASUS44 KMEG 210610
RWRTN 
TENNESSEE HOURLY STATE WEATHER ROUNDUP
NATIONAL WEATHER SERVICE MEMPHIS TN
100 AM CDT SUN JUL 21 2019

TNZ002-004-019-021-049-052-054-088>092-210700-
WEST TENNESSEE
  
CITY           SKY/WX    TMP DP  RH WIND       PRES   REMARKS
MEMPHIS INTL   FAIR      77  75  93 S7        29.98R                  
NWS MEMPHIS      N/A     77 N/A N/A MISG        N/A                   
JACKSON        FAIR      75  73  93 W5        29.99R                  
DYERSBURG      FAIR      77  75  93 CALM      29.98R                  
SOMERVILLE     CLEAR     75  73  94 S5        29.97R                  
COVINGTON      CLOUDY    77  75  94 SE3       29.97R                  
UNION CITY     CLEAR     79  75  89 S3        29.94F                  
BOLIVAR        PTCLDY    75  73  94 SE5       29.98R                  
PARIS          CLEAR     75  75 100 CALM      29.96F                  
HUNTINGDON     CLEAR     75  75 100 S6        29.97S                  
LEXINGTON      CLOUDY    75  73  94 S3        29.99R                  
SELMER         MOCLDY    75  73  94 S5        29.99R                  
SAVANNAH       CLOUDY    77  73  88 S8        29.98S                  
$$

TNZ008-025-027-028-033-062-065-066-210700-
NORTH MIDDLE TENNESSEE
  
CITY           SKY/WX    TMP DP  RH WIND       PRES   REMARKS
NASHVILLE      MOCLDY    72  68  88 CALM      30.01R                  
PORTLAND       MOCLDY    72  72 100 CALM      29.98F                  
CLARKSVILLE    FAIR      74  71  91 SE7       29.98R                  
LEBANON        CLEAR     73  72  94 CALM      29.98R                  
SMYRNA         FAIR      72  71  97 NE3       30.01R                  
MURFREESBORO   PTCLDY    73  73 100 S3        29.98R                  
COOKEVILLE     CLEAR     72  70  94 CALM      30.00S                  
LIVINGSTON     CLEAR     70  70 100 CALM      30.01F                  
GALLATIN       PTCLDY    73  72  94 CALM      30.01F                  
CROSSVILLE     CLOUDY    72  70  93 CALM      30.05S                  
ROCKWOOD       FOG       72  72 100 CALM      30.04S VSB 1/4          
$$

TNZ061-075-076-078-094-096-097-210700-
SOUTH MIDDLE TENNESSEE
  
CITY           SKY/WX    TMP DP  RH WIND       PRES   REMARKS
LAWRENCEBURG   MOCLDY    73  73 100 CALM      30.00R                  
LEWISBURG      CLEAR     72  72 100 CALM      29.98S                  
FAYETTEVILLE   PTCLDY    73  73 100 SW3       30.00R                  
TULLAHOMA      MOCLDY    73  72  94 CALM      30.00R                  
WINCHESTER     CLEAR     73  72  94 CALM      30.00R                  
MCMINNVILLE    CLEAR     72  70  94 CALM      30.01R                  
COLUMBIA       CLEAR     72  72 100 E5        29.96F                  
SHELBYVILLE    MOCLDY    73  72  94 CALM      30.00R                  
$$

TNZ017-018-042-046-047-210700-
NORTHEAST TENNESSEE
  
CITY           SKY/WX    TMP DP  RH WIND       PRES   REMARKS
TRI CITIES     MOCLDY    73  71  93 CALM      30.07S                  
ELIZABETHTON   FAIR      72  70  94 CALM      30.07F                  
GREENEVILLE    CLEAR     73  70  88 NE6       30.05F                  
$$

TNZ012-013-036-069-073-074-210700-
CENTRAL EAST TENNESSEE
  
CITY           SKY/WX    TMP DP  RH WIND       PRES   REMARKS
KNOXVILLE      FAIR      75  72  90 N5        30.00F                  
OAK RIDGE      MOCLDY    76  72  87 CALM      30.03R                  
DOWNTOWN KNOXV CLEAR     73  73 100 CALM      30.01F                  
GATLINBURG     CLOUDY    73  73 100 N5        30.01F FOG              
MORRISTOWN     CLEAR     73  73 100 CALM      30.03F                  
JACKSBORO      CLOUDY    73  73 100 NE3       30.05F FOG              
$$

TNZ083-085-099-210700-
SOUTHEAST TENNESSEE
  
CITY           SKY/WX    TMP DP  RH WIND       PRES   REMARKS
CHATTANOOGA    FAIR      76  75  97 S5        30.00F                  
DAYTON         CLOUDY    75  75 100 CALM      30.00R FOG              
$$

SKY/WX REPORTED AS FAIR MEANS FEW OR NO CLOUDS BELOW
12 THOUSAND FEET.